Huntsville Madison, AL

2:11 PM CDT on June 28, 2017 (GMT -0500)
Huntsville Madison

Weather History for KMDQ - January, 2014

Change the Weather History Date:

Saturday, January 11, 2014

  Actual Average (KHSV) Record (KHSV)
Temperature  
Mean Temperature 46 °F -  
Max Temperature 57 °F 45 °F 75 °F (1949)
Min Temperature 35 °F 26 °F -2 °F (1962)
Degree Days  
Heating Degree Days 19    
Moisture  
Dew Point 45 °F    
Average Humidity 79    
Maximum Humidity 100    
Minimum Humidity 33    
Precipitation  
Precipitation 0.99 in - - ()
Sea Level Pressure  
Sea Level Pressure 29.80 in    
Wind  
Wind Speed 9 mph (SW)    
Max Wind Speed 18 mph    
Max Gust Speed 28 mph    
Visibility 9 miles    
Events Rain , Thunderstorm    
Averages and records for this station are not official NWS values.
T = Trace of Precipitation, MM = Missing Value Source: NWS Daily Summary

Daily Weather History Graph

Daily Weather History Graph

Search for Another Location

Airport or City:

Trip Planner

Search our weather history database for the weather conditions in past years. The results will help you decide how hot, cold, wet, or windy it might be!

Date:

Astronomy

Jan. 11, 2014 Rise Set
Actual Time 6:54 AM CST 4:54 PM CST
Civil Twilight 6:26 AM CST 5:22 PM CST
Nautical Twilight 5:55 AM CST 5:53 PM CST
Astronomical Twilight 5:24 AM CST 6:23 PM CST
Moon 1:36 PM CST (1/11) 3:00 AM CST (1/11)
Length of Visible Light 10h 55m
Length of Day
10h 00m
Waxing Gibbous, 83% of the Moon is Illuminated
Jan 11
Waxing Gibbous
Jan 15
Full
Jan 23
Last Quarter
Jan 30
New
Feb 6
First Quarter

Hourly Weather History & Observations

Time (CST) Temp. Windchill Dew Point Humidity Pressure Visibility Wind Dir Wind Speed Gust Speed Precip Events Conditions
12:15 AM 53.6 °F - 51.8 °F 94% 29.79 in 10.0 mi South 9.2 mph - N/A Thunderstorm Overcast
12:35 AM 55.4 °F - 53.6 °F 94% 29.78 in 10.0 mi SSE 12.7 mph 19.6 mph N/A   Overcast
12:55 AM 55.4 °F - 53.6 °F 94% 29.76 in 10.0 mi South 11.5 mph 21.9 mph N/A Thunderstorm Overcast
1:15 AM 55.4 °F - 53.6 °F 94% 29.75 in 10.0 mi SSE 13.8 mph 21.9 mph N/A   Overcast
1:35 AM 55.4 °F - 53.6 °F 94% 29.72 in 10.0 mi SSE 12.7 mph - N/A Rain , Thunderstorm Rain
1:55 AM 55.4 °F - 53.6 °F 94% 29.70 in 4.0 mi SSE 18.4 mph 23.0 mph 0.06 in Rain , Thunderstorm Light Thunderstorms and Rain
2:15 AM 55.4 °F - 53.6 °F 94% 29.76 in 7.0 mi WSW 11.5 mph 27.6 mph N/A Rain , Thunderstorm Heavy Thunderstorms and Rain
2:35 AM 57.2 °F - 53.6 °F 88% 29.74 in 5.0 mi SSW 13.8 mph 25.3 mph 0.20 in Rain , Thunderstorm Thunderstorms and Rain
2:55 AM 55.4 °F - 53.6 °F 94% 29.72 in 7.0 mi SSW 11.5 mph - 0.24 in Rain , Thunderstorm Thunderstorms and Rain
3:15 AM 55.4 °F - 53.6 °F 94% 29.71 in 4.0 mi South 9.2 mph - 0.12 in Rain , Thunderstorm Heavy Thunderstorms and Rain
3:35 AM 55.4 °F - 53.6 °F 94% 29.66 in 10.0 mi South 4.6 mph - 0.13 in Rain , Thunderstorm Rain
3:55 AM 55.4 °F - 53.6 °F 94% 29.70 in 1.5 mi SSW 8.1 mph - 0.43 in Rain , Thunderstorm Heavy Thunderstorms and Rain
4:15 AM 55.4 °F - 53.6 °F 94% 29.73 in 5.0 mi SW 11.5 mph 18.4 mph 0.07 in Rain , Thunderstorm Heavy Thunderstorms and Rain
4:35 AM 57.2 °F - 55.4 °F 94% 29.71 in 5.0 mi West 10.4 mph 21.9 mph 0.16 in Rain Heavy Rain
4:55 AM 57.2 °F - 53.6 °F 88% 29.71 in 7.0 mi West 9.2 mph - 0.20 in Rain Rain
5:15 AM 55.4 °F - 53.6 °F 94% 29.75 in 10.0 mi West 12.7 mph 18.4 mph 0.01 in Rain , Thunderstorm Rain
5:35 AM 55.4 °F - 51.8 °F 88% 29.74 in 7.0 mi West 5.8 mph - 0.03 in Rain Heavy Rain
5:55 AM 53.6 °F - 50.0 °F 88% 29.75 in 7.0 mi SW 6.9 mph - 0.06 in Rain Rain
6:15 AM 53.6 °F - 50.0 °F 88% 29.72 in 10.0 mi SSE 5.8 mph - N/A Rain Light Rain
6:35 AM 53.6 °F - 50.0 °F 88% 29.72 in 10.0 mi SSE 3.5 mph - N/A   Scattered Clouds
6:55 AM 53.6 °F - 51.8 °F 94% 29.73 in 10.0 mi South 4.6 mph - N/A   Clear
7:15 AM 51.8 °F - 50.0 °F 94% 29.74 in 10.0 mi SW 5.8 mph - N/A   Clear
7:35 AM 51.8 °F - 51.8 °F 100% 29.76 in 10.0 mi SW 4.6 mph - N/A   Scattered Clouds
7:55 AM 53.6 °F - 51.8 °F 94% 29.77 in 10.0 mi WSW 6.9 mph - N/A   Mostly Cloudy
8:15 AM 53.6 °F - 50.0 °F 88% 29.78 in 10.0 mi WSW 8.1 mph - N/A   Mostly Cloudy
8:35 AM 53.6 °F - 50.0 °F 88% 29.80 in 10.0 mi West 8.1 mph - N/A   Overcast
8:55 AM 53.6 °F - 48.2 °F 82% 29.81 in 10.0 mi West 8.1 mph - N/A   Scattered Clouds
9:15 AM 55.4 °F - 46.4 °F 72% 29.81 in 10.0 mi West 10.4 mph 16.1 mph N/A   Scattered Clouds
9:35 AM 55.4 °F - 44.6 °F 67% 29.82 in 10.0 mi WNW 12.7 mph 17.3 mph N/A   Scattered Clouds
9:55 AM 55.4 °F - 41.0 °F 58% 29.82 in 10.0 mi West 9.2 mph 19.6 mph N/A   Clear
10:15 AM 55.4 °F - 35.6 °F 47% 29.81 in 10.0 mi West 11.5 mph - N/A   Clear
10:35 AM 55.4 °F - 35.6 °F 47% 29.81 in 10.0 mi WNW 12.7 mph 16.1 mph N/A   Clear
10:55 AM 55.4 °F - 32.0 °F 41% 29.80 in 10.0 mi West 11.5 mph 17.3 mph N/A   Clear
11:15 AM 55.4 °F - 30.2 °F 38% 29.79 in 10.0 mi West 4.6 mph 17.3 mph N/A   Clear
11:35 AM 57.2 °F - 32.0 °F 38% 29.78 in 10.0 mi WSW 10.4 mph - N/A   Clear
11:55 AM 57.2 °F - 32.0 °F 38% 29.76 in 10.0 mi West 13.8 mph 17.3 mph N/A   Clear
12:15 PM 57.2 °F - 30.2 °F 36% 29.75 in 10.0 mi WSW 11.5 mph 18.4 mph N/A   Clear
12:35 PM 57.2 °F - 28.4 °F 33% 29.74 in 10.0 mi West 12.7 mph 25.3 mph N/A   Clear
9:35 PM 42.8 °F 40.1 °F 32.0 °F 66% 29.98 in 10.0 mi West 4.6 mph - N/A   Clear
9:55 PM 42.8 °F 41.1 °F 32.0 °F 66% 29.99 in 10.0 mi West 3.5 mph - N/A   Clear
10:15 PM 41.0 °F - 32.0 °F 70% 30.00 in 10.0 mi Calm Calm - N/A   Clear
10:35 PM 39.2 °F - 32.0 °F 75% 30.00 in 10.0 mi Calm Calm - N/A   Clear
10:55 PM 37.4 °F - 32.0 °F 81% 30.01 in 10.0 mi Calm Calm - N/A   Clear
11:15 PM 35.6 °F - 32.0 °F 87% 30.01 in 10.0 mi Calm Calm - N/A   Clear
11:35 PM 35.6 °F - 32.0 °F 87% 30.01 in 10.0 mi Calm Calm - N/A   Clear
11:55 PM 35.6 °F - 32.0 °F 87% 30.00 in 10.0 mi Calm Calm - N/A   Clear